Date,TemperatureHighF,TemperatureAvgF,TemperatureLowF,DewpointHighF,DewpointAvgF,DewpointLowF,HumidityHigh,HumidityAvg,HumidityLow,PressureMaxIn,PressureMinIn,WindSpeedMaxMPH,WindSpeedAvgMPH,GustSpeedMaxMPH,PrecipitationSumIn
2013-1-1,13.0,0.8,-16.0,9.0,-4.4,-20.0,87,79,52,0.00,40.00,4,2,12,0.00
2013-1-2,16.0,14.9,13.0,15.0,12.9,11.0,97,92,86,0.00,40.00,8,4,15,0.00
2013-1-3,23.0,16.1,11.0,17.0,10.5,4.0,95,80,54,0.00,40.00,6,4,21,0.00
2013-1-4,35.0,20.7,9.0,18.0,12.6,6.0,95,74,44,0.00,40.00,7,3,12,0.00
2013-1-5,32.0,18.5,3.0,18.0,11.7,1.0,95,77,44,0.00,40.00,7,1,20,0.00
2013-1-6,28.0,19.9,11.0,22.0,12.5,6.0,91,75,49,0.00,40.00,7,3,12,0.00
2013-1-7,36.0,24.9,16.0,22.0,16.2,6.0,84,70,54,0.00,40.00,13,8,24,0.00
2013-1-8,37.0,26.3,4.0,28.0,20.1,2.0,97,79,57,0.00,40.00,11,4,19,0.00
2013-1-9,35.0,29.6,19.0,27.0,21.1,13.0,88,72,52,0.00,40.00,9,5,31,0.00
2013-1-10,40.0,31.6,15.0,33.0,16.3,9.0,99,58,28,0.00,40.00,11,6,19,0.00
2013-1-11,40.0,36.4,34.0,39.0,36.2,34.0,99,99,99,0.00,40.00,9,6,20,0.00
2013-1-12,42.0,21.8,11.0,41.0,16.7,3.0,99,81,67,0.00,40.00,7,5,24,0.00
2013-1-13,11.0,6.5,2.0,5.0,0.8,-2.0,86,77,67,0.00,40.00,6,3,11,0.00
2013-1-14,10.0,4.1,0.0,3.0,-1.0,-4.0,87,80,62,0.00,40.00,4,3,12,0.00
2013-1-15,26.0,16.3,6.0,15.0,6.8,1.0,88,68,42,0.00,40.00,11,5,22,0.00
2013-1-16,28.0,21.7,8.0,26.0,13.4,-5.0,97,73,41,0.00,40.00,9,6,26,0.00
2013-1-17,11.0,1.5,-9.0,-1.0,-7.2,-14.0,81,66,55,0.00,40.00,7,2,14,0.00
2013-1-18,27.0,15.1,-8.0,20.0,10.8,-12.0,87,83,71,0.00,40.00,7,3,15,0.00
2013-1-19,33.0,19.2,0.0,29.0,14.1,-7.0,96,81,53,0.00,40.00,18,6,35,0.00
2013-1-20,4.0,-2.7,-9.0,-7.0,-9.3,-13.0,82,73,54,0.00,40.00,8,3,19,0.00
2013-1-21,-6.0,-12.8,-22.0,-10.0,-20.9,-28.0,81,67,54,0.00,40.00,11,5,21,0.00
2013-1-22,0.0,-16.7,-25.0,-14.0,-23.4,-30.0,78,72,51,0.00,40.00,5,1,10,0.00
2013-1-23,9.0,-5.4,-17.0,2.0,-11.7,-22.0,81,74,61,0.00,40.00,12,4,27,0.00
2013-1-24,-10.0,-19.9,-24.0,-15.0,-24.4,-28.0,79,78,78,0.00,40.00,0,0,1,0.00
2013-1-30,15.0,11.8,8.0,10.0,6.6,3.0,82,79,75,0.00,40.00,11,7,21,0.00
2013-1-31,8.0,3.1,-5.0,3.0,-3.6,-11.0,85,74,63,0.00,40.00,14,7,24,0.00
2013-2-1,-2.0,-8.3,-20.0,-11.0,-17.3,-24.0,79,65,46,0.00,40.00,7,3,14,0.00
2013-2-2,12.0,1.5,-16.0,-2.0,-9.3,-21.0,80,63,42,0.00,40.00,6,2,11,0.00
2013-2-3,14.0,4.1,-3.0,1.0,-4.9,-13.0,85,68,38,0.00,40.00,10,3,16,0.00
2013-2-4,17.0,-1.4,-22.0,-1.0,-13.8,-26.0,82,61,28,0.00,40.00,5,2,11,0.00
2013-2-5,23.0,10.9,-3.0,15.0,6.0,-8.0,95,81,56,0.00,40.00,9,4,15,0.00
2013-2-6,21.0,8.4,-8.0,20.0,5.1,-11.0,96,86,70,0.00,40.00,4,1,7,0.00
2013-2-7,24.0,21.4,15.0,21.0,19.5,13.0,99,92,84,0.00,40.00,12,6,21,0.00
2013-2-8,28.0,14.3,0.0,16.0,8.4,-3.0,94,80,48,0.00,40.00,6,2,10,0.00
2013-2-9,25.0,18.9,-2.0,22.0,16.3,-5.0,98,90,73,0.00,40.00,13,6,23,0.00
2013-2-10,32.0,26.6,22.0,31.0,26.1,22.0,99,98,94,0.00,40.00,7,3,17,0.00
2013-2-11,31.0,25.8,20.0,30.0,23.3,15.0,99,91,79,0.00,40.00,10,7,20,0.00
2013-2-12,30.0,21.8,15.0,21.0,17.1,13.0,94,82,63,0.00,40.00,10,4,19,0.00
2013-2-13,40.0,27.8,18.0,27.0,21.5,17.0,95,79,50,0.00,40.00,6,3,12,0.00
2013-2-14,28.0,22.5,8.0,26.0,16.8,0.0,96,79,57,0.00,40.00,12,6,19,0.00
2013-2-15,18.0,8.7,0.0,4.0,-2.0,-7.0,87,64,38,0.00,40.00,11,4,19,0.00
2013-2-16,22.0,-0.3,-16.0,1.0,-11.2,-20.0,82,64,32,0.00,40.00,5,1,9,0.00
2013-2-17,25.0,7.1,-20.0,9.0,-4.3,-24.0,81,62,46,0.00,40.00,11,6,25,0.00
2013-2-18,33.0,25.5,15.0,26.0,19.7,9.0,96,79,59,0.00,40.00,11,6,29,0.00
2013-2-19,15.0,5.5,-2.0,12.0,-2.3,-8.0,88,71,51,0.00,40.00,16,10,29,0.00
2013-2-20,21.0,8.5,2.0,5.0,0.6,-5.0,84,71,44,0.00,40.00,7,4,16,0.00
2013-2-21,29.0,12.0,-12.0,17.0,4.9,-16.0,92,76,44,0.00,40.00,10,5,16,0.00
2013-2-22,26.0,21.7,18.0,23.0,19.9,16.0,97,93,87,0.00,40.00,7,4,15,0.00
2013-2-23,31.0,26.0,19.0,27.0,23.2,18.0,99,90,69,0.00,40.00,6,2,9,0.00
2013-2-24,36.0,27.8,14.0,27.0,22.5,13.0,99,82,54,0.00,40.00,4,-39,8,0.00
2013-2-25,33.0,18.3,2.0,24.0,14.4,0.0,95,86,69,0.00,40.00,6,1,10,0.00
2013-2-26,38.0,21.1,2.0,28.0,15.9,1.0,97,82,58,0.00,40.00,13,6,26,0.00
2013-2-27,30.0,29.1,28.0,27.0,24.9,22.0,93,84,73,0.00,40.00,16,11,32,0.00
2013-2-28,29.0,24.1,21.0,23.0,18.7,15.0,86,80,74,0.00,40.00,13,9,24,0.00
2013-3-1,24.0,19.7,5.0,16.0,13.5,2.0,88,77,65,0.00,40.00,12,8,24,0.00
2013-3-2,31.0,10.7,-11.0,11.0,-0.7,-14.0,88,65,32,0.00,40.00,5,1,11,0.00
2013-3-3,36.0,13.8,-10.0,11.0,-0.8,-13.0,86,59,22,0.00,40.00,7,2,13,0.00
2013-3-4,33.0,23.9,9.0,20.0,8.9,3.0,89,56,28,0.00,40.00,8,3,16,0.00
2013-3-5,28.0,23.9,19.0,21.0,18.0,15.0,99,80,60,0.00,40.00,11,6,22,0.00
2013-3-6,32.0,20.5,5.0,19.0,11.6,2.0,98,72,39,0.00,40.00,9,3,15,0.00
2013-3-7,40.0,19.4,-5.0,15.0,7.0,-7.0,91,64,32,0.00,40.00,4,1,7,0.00
2013-3-8,42.0,30.2,15.0,25.0,20.1,12.0,91,68,46,0.00,40.00,11,5,20,0.00
2013-3-9,35.0,32.9,31.0,34.0,30.1,22.0,99,90,67,0.00,40.00,7,5,17,0.00
2013-3-10,33.0,31.7,28.0,33.0,28.1,23.0,99,87,75,0.00,40.00,13,8,22,0.00
2013-3-11,28.0,25.1,22.0,25.0,22.6,18.0,99,91,77,0.00,40.00,13,9,26,0.00
2013-3-12,27.0,21.2,18.0,18.0,14.6,9.0,91,77,46,0.00,40.00,11,6,19,0.00
2013-3-13,36.0,20.5,5.0,13.0,3.9,-3.0,93,58,19,0.00,40.00,9,-40,17,0.00
2013-3-14,38.0,21.5,3.0,26.0,14.2,1.0,92,75,55,0.00,40.00,7,2,13,0.00
2013-3-15,30.0,24.9,17.0,27.0,18.6,12.0,95,78,60,0.00,40.00,11,6,21,0.00
2013-3-16,26.0,17.0,6.0,14.0,7.6,-2.0,93,69,41,0.00,40.00,11,5,21,0.00
2013-3-17,30.0,12.2,-14.0,5.0,-4.6,-18.0,83,53,24,0.00,40.00,9,4,16,0.00
2013-3-18,29.0,22.5,16.0,27.0,18.0,6.0,94,83,52,0.00,40.00,10,6,24,0.00
2013-3-19,28.0,17.1,9.0,16.0,4.8,-5.0,93,63,32,0.00,40.00,14,9,28,0.00
2013-3-20,18.0,8.8,4.0,3.0,-1.2,-6.0,81,64,48,0.00,40.00,13,6,21,0.00
2013-3-21,33.0,19.9,3.0,10.0,6.0,0.0,90,58,34,0.00,40.00,6,3,12,0.00
2013-3-22,36.0,17.2,-6.0,18.0,7.6,-8.0,90,69,45,0.00,40.00,8,2,14,0.00
2013-3-23,36.0,27.0,9.0,22.0,16.8,8.0,97,68,48,0.00,40.00,9,3,14,0.00
2013-3-24,29.0,24.7,16.0,25.0,20.2,14.0,91,83,74,0.00,40.00,12,6,22,0.00
2013-3-25,33.0,20.0,5.0,25.0,14.7,3.0,98,82,57,0.00,40.00,9,2,16,0.00
2013-3-26,39.0,33.1,22.0,24.0,18.4,14.0,97,58,37,0.00,40.00,7,2,14,0.00
2013-3-27,38.0,31.2,26.0,23.0,21.2,19.0,88,69,46,0.00,40.00,4,2,7,0.00
2013-3-28,50.0,33.1,11.0,24.0,14.4,10.0,98,55,23,0.00,40.00,7,2,11,0.00
2013-3-29,50.0,33.2,14.0,26.0,19.1,14.0,99,64,27,0.00,40.00,6,2,14,0.00
2013-3-30,49.0,38.6,31.0,42.0,33.2,-99.9,99,87,53,0.00,40.00,6,3,11,0.00
2013-3-31,35.0,30.4,23.0,31.0,19.1,4.0,99,68,33,0.00,40.00,16,7,32,0.00
2013-4-1,32.0,24.6,16.0,10.0,4.6,2.0,67,44,29,0.00,40.00,15,8,26,0.00
2013-4-2,36.0,24.6,9.0,15.0,5.4,1.0,84,47,24,0.00,40.00,12,4,20,0.00
2013-4-3,42.0,25.9,6.0,22.0,8.4,4.0,93,55,23,0.00,40.00,14,5,24,0.00
2013-4-4,45.0,39.5,26.0,30.0,22.0,13.0,66,51,35,0.00,40.00,14,7,25,0.00
2013-4-5,42.0,30.2,15.0,24.0,14.2,10.0,97,57,29,0.00,40.00,6,2,11,0.00
2013-4-6,42.0,34.1,32.0,33.0,30.0,24.0,99,86,63,0.00,40.00,14,-37,25,0.00
2013-4-7,38.0,34.1,29.0,34.0,31.0,28.0,99,89,71,0.00,40.00,2,1,6,0.00
2013-4-8,40.0,35.5,31.0,40.0,35.2,30.0,99,99,96,0.00,40.00,6,3,9,0.00
2013-4-9,39.0,34.5,31.0,35.0,26.8,13.0,99,77,41,0.00,40.00,13,6,25,0.00
2013-4-10,37.0,32.7,28.0,26.0,19.4,15.0,89,60,41,0.00,40.00,14,8,24,0.00
2013-4-11,33.0,29.7,26.0,27.0,22.0,13.0,99,75,44,0.00,40.00,11,7,25,0.00
2013-4-12,34.0,28.8,25.0,28.0,25.6,22.0,96,88,67,0.00,40.00,12,7,21,0.00
2013-4-13,35.0,28.0,18.0,24.0,19.8,16.0,96,74,46,0.00,40.00,7,3,12,0.00
2013-4-14,41.0,26.1,9.0,33.0,20.8,8.0,99,84,42,0.00,40.00,10,4,25,0.00
2013-4-15,38.0,35.1,33.0,34.0,28.5,24.0,99,78,61,0.00,40.00,12,6,27,0.00
2013-4-16,45.0,37.5,26.0,31.0,24.5,18.0,87,62,37,0.00,40.00,8,-7,15,0.00
2013-4-17,39.0,32.7,25.0,32.0,26.4,22.0,99,78,58,0.00,40.00,9,-34,19,0.00
2013-4-18,32.0,31.3,29.0,32.0,30.8,29.0,99,99,99,0.00,40.00,12,7,27,0.00
2013-4-19,30.0,27.0,14.0,29.0,23.6,11.0,99,88,71,0.00,40.00,16,9,29,0.00
2013-4-20,41.0,22.9,-2.0,22.0,6.9,-4.0,90,59,22,0.00,40.00,8,2,13,0.00
2013-4-21,38.0,32.7,20.0,38.0,26.2,11.0,99,78,49,0.00,40.00,12,7,29,0.00
2013-4-22,46.0,37.9,31.0,38.0,27.8,15.0,99,73,32,0.00,40.00,10,6,21,0.00
2013-4-23,44.0,33.8,22.0,31.0,23.3,11.0,99,72,28,0.00,40.00,11,7,17,0.00
2013-4-24,48.0,31.1,13.0,33.0,21.1,12.0,99,73,34,0.00,40.00,7,3,16,0.00
2013-4-25,48.0,36.1,21.0,35.0,22.3,15.0,99,65,27,0.00,40.00,7,3,19,0.00
2013-4-26,66.0,48.0,34.0,35.0,31.1,24.0,91,56,32,0.00,40.00,10,4,19,0.00
2013-4-27,71.0,49.7,28.0,38.0,32.2,28.0,99,61,24,0.00,40.00,9,2,17,0.00
2013-4-28,72.0,58.0,42.0,54.0,43.3,37.0,99,63,33,0.00,40.00,16,7,27,0.00
2013-4-29,73.0,55.1,35.0,48.0,38.3,33.0,99,63,24,0.00,40.00,6,2,11,0.00
2013-4-30,78.0,62.1,45.0,56.0,43.3,24.0,90,55,27,0.00,40.00,12,6,29,0.00
2013-5-1,53.0,39.5,32.0,40.0,33.1,27.0,99,82,36,0.00,40.00,8,3,15,0.00
2013-5-2,33.0,30.7,29.0,32.0,29.0,27.0,99,94,80,0.00,40.00,8,-46,19,0.00
2013-5-3,30.0,29.5,28.0,29.0,28.3,27.0,99,96,92,0.00,40.00,12,9,22,0.00
2013-5-4,37.0,33.2,30.0,36.0,32.8,29.0,99,98,94,0.00,40.00,9,6,17,0.00
2013-5-5,50.0,39.4,33.0,37.0,34.4,32.0,99,84,57,0.00,40.00,9,5,14,0.00
2013-5-6,72.0,52.0,31.0,41.0,36.1,31.0,99,64,29,0.00,40.00,6,2,11,0.00
2013-5-7,78.0,56.2,33.0,43.0,36.8,32.0,99,60,21,0.00,40.00,7,2,14,0.00
2013-5-8,81.0,56.5,34.0,54.0,43.0,33.0,99,68,23,0.00,40.00,7,2,13,0.00
2013-5-9,55.0,41.5,36.0,51.0,38.6,25.0,99,90,64,0.00,40.00,11,7,27,0.00
2013-5-10,60.0,42.5,32.0,31.0,22.4,-99.9,95,55,21,0.00,40.00,10,5,20,0.00
2013-5-11,43.0,38.8,35.0,34.0,26.1,-99.9,92,64,47,0.00,40.00,23,10,34,0.00
2013-5-12,52.0,41.0,32.0,24.0,17.4,11.0,64,42,21,0.00,40.00,14,8,28,0.00
2013-5-13,59.0,44.8,21.0,32.0,23.1,18.0,97,50,22,0.00,40.00,12,5,23,0.00
2013-5-14,85.0,63.6,35.0,44.0,38.3,30.0,94,45,22,0.00,40.00,10,5,29,0.00
2013-5-15,79.0,65.2,48.0,46.0,40.2,34.0,88,44,22,0.00,40.00,12,6,22,0.00
2013-5-16,72.0,55.3,46.0,46.0,20.5,-99.9,96,48,22,0.00,40.00,10,4,19,0.00
2013-5-17,73.0,58.6,46.0,49.0,33.6,-99.9,74,49,34,0.00,40.00,9,4,19,0.00
2013-5-18,71.0,59.3,53.0,63.0,54.8,48.0,99,86,61,0.00,40.00,8,4,22,0.00
2013-5-19,82.0,67.5,54.0,63.0,59.2,49.0,99,79,40,0.00,40.00,11,5,19,0.00
2013-5-20,74.0,56.9,43.0,61.0,53.6,42.0,99,91,49,0.00,40.00,9,5,20,0.00
2013-5-21,52.0,44.5,40.0,45.0,42.4,40.0,99,93,76,0.00,40.00,12,7,19,0.00
2013-5-22,48.0,43.7,40.0,45.0,41.8,38.0,99,94,77,0.00,40.00,14,8,26,0.00
2013-5-23,55.0,44.7,35.0,38.0,28.1,22.0,85,55,29,0.00,40.00,12,8,26,0.00
2013-5-24,68.0,49.0,26.0,40.0,28.3,26.0,99,55,21,0.00,40.00,7,2,15,0.00
2013-5-25,69.0,54.2,42.0,47.0,39.9,35.0,94,63,33,0.00,40.00,7,3,18,0.00
2013-5-26,73.0,54.5,35.0,42.0,32.4,26.0,99,54,19,0.00,40.00,11,4,22,0.00
2013-5-27,70.0,58.6,43.0,42.0,39.3,35.0,87,51,36,0.00,40.00,9,-36,19,0.00
2013-5-28,67.0,58.9,54.0,57.0,48.7,41.0,97,70,54,0.00,40.00,6,3,13,0.00
2013-5-29,76.0,60.4,56.0,64.0,57.4,55.0,99,91,52,0.00,40.00,8,4,20,0.00
2013-5-30,77.0,68.9,62.0,66.0,62.4,60.0,98,81,56,0.00,40.00,10,6,21,0.00
2013-5-31,78.0,66.9,56.0,61.0,56.6,47.0,97,73,38,0.00,40.00,17,7,38,0.00
2013-6-1,65.0,55.4,43.0,60.0,51.7,-99.9,99,92,68,0.00,40.00,11,4,21,0.00
2013-6-2,65.0,50.0,40.0,43.0,37.2,31.0,99,69,29,0.00,40.00,10,5,28,0.00
2013-6-3,68.0,52.0,33.0,45.0,33.5,25.0,99,58,28,0.00,40.00,9,3,17,0.00
2013-6-4,63.0,55.4,49.0,53.0,39.8,25.0,98,59,33,0.00,40.00,6,2,12,0.00
2013-6-5,55.0,51.8,49.0,54.0,51.0,49.0,99,97,88,0.00,40.00,6,3,15,0.00
2013-6-6,54.0,50.1,48.0,51.0,49.0,47.0,99,96,87,0.00,40.00,9,3,14,0.00
2013-6-7,71.0,56.2,43.0,53.0,44.1,36.0,99,71,31,0.00,40.00,6,2,9,0.00
2013-6-8,73.0,59.6,50.0,55.0,49.4,43.0,99,73,37,0.00,40.00,4,2,14,0.00
2013-6-9,62.0,57.0,54.0,60.0,53.8,48.0,96,89,75,0.00,40.00,6,3,17,0.00
2013-6-10,69.0,60.6,54.0,60.0,57.6,54.0,99,90,63,0.00,40.00,6,2,16,0.00
2013-6-11,84.0,73.8,54.0,60.0,53.2,46.0,95,52,31,0.00,40.00,7,3,12,0.00
2013-6-12,81.0,65.7,48.0,52.0,47.4,45.0,99,60,29,0.00,40.00,6,2,14,0.00
2013-6-13,72.0,60.8,49.0,51.0,46.7,42.0,97,64,35,0.00,40.00,9,5,19,0.00
2013-6-14,78.0,69.5,48.0,54.0,45.2,41.0,97,45,30,0.00,40.00,9,4,19,0.00
2013-6-15,71.0,64.1,55.0,65.0,60.9,54.0,99,89,72,0.00,40.00,4,-43,11,0.00
2013-6-16,80.0,63.9,46.0,59.0,50.2,44.0,99,69,30,0.00,40.00,18,3,31,0.00
2013-6-17,63.0,56.2,45.0,56.0,50.5,42.0,99,82,59,0.00,40.00,10,5,19,0.00
2013-6-18,77.0,57.2,38.0,46.0,38.7,35.0,99,60,24,0.00,40.00,6,3,11,0.00
2013-6-19,80.0,63.2,40.0,56.0,47.7,39.0,99,64,35,0.00,40.00,9,-7,14,0.00
2013-6-20,78.0,65.3,57.0,66.0,60.1,55.0,98,85,58,0.00,40.00,7,3,16,0.00
2013-6-22,76.0,68.0,60.0,65.0,63.8,60.0,99,86,68,0.00,40.00,4,3,9,0.00
2013-6-23,81.0,71.8,60.0,66.0,62.7,59.0,98,76,48,0.00,40.00,12,5,27,0.00
2013-6-24,83.0,70.7,54.0,67.0,58.8,53.0,99,72,38,0.00,40.00,8,2,16,0.00
2013-6-25,87.0,71.9,58.0,67.0,62.1,58.0,99,76,42,0.00,40.00,6,2,14,0.00
2013-6-26,80.0,70.6,62.0,72.0,67.6,62.0,99,91,63,0.00,40.00,4,1,12,0.00
2013-6-27,85.0,72.1,61.0,69.0,59.2,50.0,99,70,37,0.00,40.00,12,4,22,0.00
2013-6-28,69.0,63.3,59.0,65.0,61.2,57.0,97,93,80,0.00,40.00,9,4,15,0.00
2013-6-29,71.0,62.1,48.0,59.0,52.6,43.0,99,74,43,0.00,40.00,11,5,21,0.00
2013-6-30,82.0,62.8,41.0,59.0,46.3,40.0,99,65,27,0.00,40.00,6,2,13,0.00
2013-7-1,77.0,63.1,48.0,63.0,48.4,41.0,99,65,38,0.00,40.00,9,3,19,0.00
2013-7-2,79.0,53.7,40.0,53.0,43.1,36.0,99,75,22,0.00,40.00,6,2,14,0.00
2013-7-3,84.0,61.0,39.0,55.0,45.0,39.0,99,67,23,0.00,40.00,6,2,11,0.00
2013-7-4,84.0,68.9,50.0,60.0,54.3,50.0,99,65,37,0.00,40.00,12,4,19,0.00
2013-7-5,85.0,75.8,66.0,60.0,57.1,54.0,76,54,36,0.00,40.00,13,7,25,0.00
2013-7-6,84.0,75.9,73.0,73.0,62.1,56.0,93,63,51,0.00,40.00,9,6,20,0.00
2013-7-7,86.0,74.1,61.0,71.0,67.7,61.0,99,82,53,0.00,40.00,9,5,15,0.00
2013-7-8,82.0,65.1,58.0,67.0,61.5,57.0,99,90,57,0.00,40.00,7,3,12,0.00
2013-7-9,76.0,67.6,56.0,73.0,65.3,56.0,99,93,73,0.00,40.00,7,2,13,0.00
2013-7-10,77.0,65.4,55.0,65.0,50.8,-99.9,97,67,37,0.00,40.00,11,5,24,0.00
2013-7-11,81.0,65.6,48.0,60.0,53.2,48.0,99,72,33,0.00,40.00,6,1,12,0.00
2013-7-12,83.0,73.1,59.0,60.0,57.2,55.0,97,60,40,0.00,40.00,14,8,27,0.00
2013-7-13,77.0,72.0,66.0,66.0,61.2,55.0,91,69,52,0.00,40.00,9,5,17,0.00
2013-7-14,84.0,73.9,66.0,69.0,62.9,58.0,97,71,43,0.00,40.00,9,4,17,0.00
2013-7-15,87.0,72.4,58.0,70.0,61.5,58.0,99,74,39,0.00,40.00,7,2,12,0.00
2013-7-16,90.0,78.0,64.0,74.0,67.0,63.0,99,73,44,0.00,40.00,7,3,17,0.00
2013-7-17,91.0,78.3,65.0,71.0,65.8,62.0,99,71,40,0.00,40.00,6,3,15,0.00
2013-7-18,91.0,80.5,67.0,72.0,66.5,64.0,98,67,41,0.00,40.00,9,5,23,0.00
2013-7-19,81.0,75.2,61.0,72.0,62.3,52.0,98,68,37,0.00,40.00,10,5,21,0.00
2013-7-20,72.0,61.2,51.0,60.0,48.7,-99.9,96,69,40,0.00,40.00,7,2,16,0.00
2013-7-21,77.0,63.4,48.0,57.0,51.9,43.0,95,69,46,0.00,40.00,4,2,12,0.00
2013-7-22,83.0,69.2,55.0,67.0,60.6,52.0,98,77,45,0.00,40.00,12,6,22,0.00
2013-7-23,71.0,59.9,50.0,55.0,48.8,41.0,97,71,37,0.00,40.00,11,4,18,0.00
2013-7-24,73.0,59.2,42.0,59.0,47.7,42.0,99,72,40,0.00,40.00,6,2,16,0.00
2013-7-25,82.0,65.3,53.0,64.0,56.1,52.0,99,77,38,0.00,40.00,6,2,21,0.00
2013-7-26,64.0,54.8,47.0,59.0,53.2,46.0,99,95,71,0.00,40.00,10,4,20,0.00
2013-7-27,54.0,49.1,44.0,50.0,46.6,44.0,99,93,76,0.00,40.00,10,5,16,0.00
2013-7-28,62.0,54.5,48.0,57.0,51.8,47.0,99,92,67,0.00,40.00,7,4,17,0.00
2013-7-29,77.0,60.0,41.0,59.0,49.0,40.0,99,74,38,0.00,40.00,4,1,11,0.00
2013-7-30,69.0,62.3,56.0,62.0,58.5,55.0,99,89,68,0.00,40.00,7,2,16,0.00
2013-7-31,78.0,65.2,53.0,66.0,55.6,44.0,99,77,33,0.00,40.00,10,3,22,0.00
2013-8-1,77.0,62.4,44.0,56.0,49.9,44.0,99,70,36,0.00,40.00,11,3,18,0.00
2013-8-2,75.0,62.1,49.0,58.0,49.5,44.0,99,70,35,0.00,40.00,12,4,21,0.00
2013-8-3,73.0,58.4,41.0,57.0,45.9,40.0,99,71,33,0.00,40.00,11,3,19,0.00
2013-8-4,73.0,57.8,40.0,56.0,46.5,40.0,99,72,39,0.00,40.00,5,1,12,0.00
2013-8-5,73.0,60.7,50.0,65.0,58.7,50.0,99,93,70,0.00,40.00,7,2,14,0.00
2013-8-6,76.0,66.0,60.0,65.0,60.0,54.0,98,84,47,0.00,40.00,7,2,12,0.00
2013-8-7,71.0,62.5,59.0,62.0,56.4,43.0,99,84,36,0.00,40.00,9,4,16,0.00
2013-8-8,73.0,63.3,48.0,61.0,54.9,48.0,99,77,42,0.00,40.00,5,2,13,0.00
2013-8-9,70.0,60.5,49.0,58.0,49.2,43.0,99,71,39,0.00,40.00,6,2,15,0.00
2013-8-10,75.0,61.9,51.0,58.0,52.7,48.0,99,76,40,0.00,40.00,3,1,9,0.00
2013-8-11,79.0,59.5,43.0,60.0,49.8,43.0,99,77,34,0.00,40.00,7,1,13,0.00
2013-8-12,75.0,60.3,45.0,60.0,51.3,44.0,99,77,41,0.00,40.00,9,3,17,0.00
2013-8-13,69.0,53.5,38.0,56.0,42.3,-99.9,99,73,38,0.00,40.00,9,2,17,0.00
2013-8-14,74.0,54.5,36.0,54.0,41.6,-99.9,99,73,33,0.00,40.00,8,2,17,0.00
2013-8-15,79.0,57.7,44.0,56.0,41.2,-99.9,99,69,31,0.00,40.00,6,2,15,0.00
2013-8-16,82.0,62.1,44.0,63.0,47.1,-99.9,99,70,31,0.00,40.00,5,1,11,0.00
2013-8-17,80.0,63.4,46.0,61.0,48.4,-99.9,99,67,34,0.00,40.00,11,3,20,0.00
2013-8-18,80.0,65.1,48.0,59.0,51.7,48.0,99,68,33,0.00,40.00,9,4,21,0.00
2013-8-19,84.0,68.4,58.0,66.0,54.3,-99.9,94,69,46,0.00,40.00,9,4,19,0.00
2013-8-20,89.0,76.7,67.0,71.0,66.0,64.0,93,72,46,0.00,40.00,11,5,21,0.00
2013-8-21,85.0,75.0,59.0,74.0,67.6,56.0,99,80,41,0.00,40.00,9,4,18,0.00
2013-8-22,80.0,66.1,49.0,61.0,48.3,41.0,99,62,25,0.00,40.00,7,3,14,0.00
2013-8-23,85.0,61.3,40.0,58.0,46.7,40.0,99,69,23,0.00,40.00,5,1,12,0.00
2013-8-24,83.0,71.2,58.0,70.0,59.9,-99.9,99,72,50,0.00,40.00,14,7,30,0.00
2013-8-25,95.0,83.3,75.0,72.0,69.8,67.0,86,66,41,0.00,40.00,11,6,26,0.00
2013-8-26,88.0,77.8,70.0,77.0,73.1,70.0,99,87,61,0.00,40.00,16,3,39,0.00
2013-8-27,81.0,72.2,69.0,73.0,70.3,69.0,99,95,70,0.00,40.00,6,3,11,0.00
2013-8-28,87.0,78.0,69.0,71.0,64.7,57.0,96,68,38,0.00,40.00,2,1,6,0.00
2013-8-29,83.0,71.7,65.0,71.0,68.0,64.0,99,89,65,0.00,40.00,9,3,14,0.00
2013-8-30,77.0,69.6,58.0,71.0,64.0,57.0,99,85,52,0.00,40.00,10,4,21,0.00
2013-8-31,82.0,67.1,53.0,67.0,57.6,-99.9,99,77,47,0.00,40.00,7,2,12,0.00
2013-9-1,78.0,65.8,56.0,64.0,59.2,54.0,99,81,47,0.00,40.00,11,5,20,0.00
2013-9-2,64.0,55.1,44.0,54.0,48.8,43.0,99,82,50,0.00,40.00,9,4,16,0.00
2013-9-3,75.0,56.5,36.0,55.0,46.9,36.0,99,76,39,0.00,40.00,7,-47,15,0.00
2013-9-4,72.0,59.4,48.0,59.0,51.4,47.0,99,79,42,0.00,40.00,7,2,15,0.00
2013-9-5,76.0,56.7,40.0,57.0,45.7,39.0,99,75,29,0.00,40.00,4,1,10,0.00
2013-9-6,84.0,69.7,57.0,67.0,61.4,52.0,95,77,53,0.00,40.00,11,5,17,0.00
2013-9-7,84.0,67.4,59.0,69.0,61.8,-99.9,99,87,52,0.00,40.00,11,3,22,0.00
2013-9-8,69.0,61.1,51.0,58.0,50.8,46.0,98,71,47,0.00,40.00,5,2,15,0.00
2013-9-9,81.0,68.2,61.0,72.0,65.4,56.0,99,92,71,0.00,40.00,6,2,12,0.00
2013-9-10,77.0,69.2,63.0,69.0,65.8,62.0,99,90,62,0.00,40.00,5,2,13,0.00
2013-9-11,77.0,65.6,57.0,63.0,56.7,47.0,99,78,36,0.00,40.00,11,4,20,0.00
2013-9-12,64.0,55.0,41.0,56.0,48.1,40.0,99,81,45,0.00,40.00,12,4,19,0.00
2013-9-13,65.0,48.0,32.0,49.0,39.3,32.0,99,78,38,0.00,40.00,6,1,9,0.00
2013-9-14,70.0,52.7,36.0,55.0,42.9,-99.9,99,76,43,0.00,40.00,7,2,15,0.00
2013-9-15,55.0,50.3,34.0,55.0,48.0,34.0,99,93,70,0.00,40.00,13,2,20,0.00
2013-9-16,64.0,44.5,29.0,51.0,36.1,29.0,99,78,36,0.00,40.00,4,1,9,0.00
2013-9-17,67.0,53.9,35.0,51.0,42.8,35.0,99,70,40,0.00,40.00,11,6,23,0.00
2013-9-18,66.0,58.8,57.0,65.0,57.6,51.0,99,96,78,0.00,40.00,9,4,16,0.00
2013-9-19,72.0,67.4,65.0,70.0,66.5,64.0,99,97,89,0.00,40.00,6,3,14,0.00
2013-9-20,66.0,57.3,47.0,65.0,53.5,43.0,98,88,61,0.00,40.00,8,3,17,0.00
2013-9-21,60.0,48.7,37.0,46.0,38.7,-99.9,99,74,43,0.00,40.00,9,4,17,0.00
2013-9-22,64.0,47.5,32.0,46.0,37.7,32.0,99,75,38,0.00,40.00,6,3,12,0.00
2013-9-23,69.0,56.3,46.0,49.0,45.5,42.0,95,70,44,0.00,40.00,11,6,19,0.00
2013-9-24,73.0,56.2,45.0,52.0,47.5,44.0,99,77,37,0.00,40.00,7,3,13,0.00
2013-9-25,74.0,53.3,38.0,60.0,45.4,37.0,99,81,40,0.00,40.00,3,1,12,0.00
2013-9-26,74.0,58.9,42.0,50.0,47.6,42.0,99,71,43,0.00,40.00,7,4,19,0.00
2013-9-27,76.0,67.2,58.0,58.0,52.5,48.0,75,60,50,0.00,40.00,9,6,24,0.00
2013-9-28,72.0,60.1,49.0,63.0,49.7,-99.9,99,74,46,0.00,40.00,12,6,29,0.00
2013-9-29,70.0,54.6,38.0,49.0,42.9,38.0,99,71,31,0.00,40.00,10,4,19,0.00
2013-9-30,72.0,61.1,54.0,49.0,46.2,44.0,71,59,43,0.00,40.00,16,8,30,0.00
2013-10-1,61.0,52.8,46.0,40.0,35.6,31.0,80,56,32,0.00,40.00,4,3,12,0.00
2013-10-2,74.0,54.0,32.0,53.0,39.6,31.0,99,69,21,0.00,40.00,6,2,13,0.00
2013-10-3,55.0,52.4,51.0,54.0,52.1,51.0,99,98,94,0.00,40.00,6,4,13,0.00
2013-10-4,58.0,53.2,51.0,52.0,51.0,50.0,99,93,77,0.00,40.00,9,5,20,0.00
2013-10-5,55.0,51.6,49.0,54.0,51.2,49.0,99,99,97,0.00,40.00,7,4,17,0.00
2013-10-6,56.0,49.8,41.0,55.0,48.7,41.0,99,96,80,0.00,40.00,7,2,13,0.00
2013-10-7,62.0,46.6,35.0,48.0,39.2,33.0,99,81,36,0.00,40.00,7,2,12,0.00
2013-10-8,73.0,55.0,32.0,42.0,37.8,32.0,99,60,27,0.00,40.00,15,7,28,0.00
2013-10-9,72.0,63.2,48.0,49.0,44.4,39.0,95,52,38,0.00,40.00,14,7,22,0.00
2013-10-10,72.0,58.1,45.0,48.0,42.7,39.0,99,61,32,0.00,40.00,7,4,22,0.00
2013-10-11,74.0,63.6,53.0,52.0,48.5,43.0,87,60,40,0.00,40.00,16,7,29,0.00
2013-10-12,67.0,54.3,46.0,54.0,43.3,-99.9,97,70,55,0.00,40.00,11,6,27,0.00
2013-10-13,58.0,46.3,32.0,45.0,35.7,24.0,99,73,29,0.00,40.00,9,-42,15,0.00
2013-10-14,54.0,41.4,29.0,42.0,32.3,29.0,99,75,45,0.00,40.00,5,2,11,0.00
2013-10-15,49.0,47.5,45.0,49.0,45.7,33.0,99,94,54,0.00,40.00,12,5,29,0.00
2013-10-16,45.0,40.7,29.0,45.0,38.4,29.0,99,93,67,0.00,40.00,12,4,29,0.00
2013-10-17,52.0,38.3,27.0,44.0,35.3,27.0,99,90,60,0.00,40.00,4,1,7,0.00
2013-10-18,47.0,40.7,33.0,43.0,36.1,24.0,99,86,40,0.00,40.00,9,4,15,0.00
2013-10-19,42.0,35.9,29.0,39.0,33.5,-99.9,99,95,79,0.00,40.00,4,2,9,0.00
2013-10-20,38.0,31.4,26.0,38.0,30.8,26.0,99,98,91,0.00,40.00,6,2,12,0.00
2013-10-21,33.0,31.7,30.0,33.0,28.7,24.0,99,89,71,0.00,40.00,7,4,16,0.00
2013-10-22,35.0,32.8,27.0,32.0,28.1,24.0,98,84,68,0.00,40.00,7,3,16,0.00
2013-10-23,36.0,31.0,26.0,30.0,23.3,16.0,97,76,44,0.00,40.00,9,4,16,0.00
2013-10-24,38.0,33.8,30.0,28.0,25.8,22.0,90,74,54,0.00,40.00,9,4,16,0.00
2013-10-25,49.0,36.5,22.0,35.0,26.7,22.0,99,71,45,0.00,40.00,10,4,27,0.00
2013-10-26,49.0,40.1,36.0,35.0,29.4,-99.9,83,68,48,0.00,40.00,12,6,23,0.00
2013-10-27,50.0,37.9,30.0,33.0,28.5,27.0,95,71,43,0.00,40.00,12,6,22,0.00
2013-10-28,41.0,32.2,24.0,33.0,20.9,-99.9,95,68,36,0.00,40.00,12,5,25,0.00
2013-10-29,35.0,31.5,22.0,34.0,28.3,22.0,99,88,66,0.00,40.00,4,1,10,0.00
2013-10-30,49.0,41.5,34.0,48.0,41.1,34.0,99,99,99,0.00,40.00,6,2,11,0.00
2013-10-31,49.0,47.2,44.0,49.0,47.0,44.0,99,99,99,0.00,40.00,5,2,7,0.00
2013-11-1,43.0,39.2,35.0,43.0,38.5,34.0,99,97,92,0.00,40.00,7,4,17,0.00
2013-11-2,43.0,33.5,24.0,33.0,24.4,-99.9,99,77,43,0.00,40.00,7,2,16,0.00
2013-11-3,47.0,37.9,23.0,32.0,28.1,22.0,99,70,45,0.00,40.00,11,6,21,0.00
2013-11-4,43.0,41.3,32.0,43.0,36.4,29.0,99,85,59,0.00,40.00,16,8,30,0.00
2013-11-5,45.0,34.9,27.0,35.0,28.8,22.0,99,82,42,0.00,40.00,6,2,10,0.00
2013-11-6,36.0,29.4,18.0,33.0,26.5,17.0,99,89,61,0.00,40.00,7,1,15,0.00
2013-11-7,36.0,22.5,13.0,29.0,18.0,12.0,97,85,51,0.00,40.00,5,1,13,0.00
2013-11-8,37.0,25.3,11.0,33.0,20.9,10.0,97,84,67,0.00,40.00,10,3,23,0.00
2013-11-9,37.0,35.1,34.0,36.0,31.4,-99.9,99,89,73,0.00,40.00,10,5,24,0.00
2013-11-10,41.0,35.8,32.0,31.0,25.1,20.0,92,67,44,0.00,40.00,11,4,19,0.00
2013-11-11,33.0,20.7,9.0,31.0,10.9,4.0,94,68,44,0.00,40.00,14,7,22,0.00
2013-11-12,27.0,18.1,9.0,9.0,5.8,2.0,90,62,38,0.00,40.00,7,4,16,0.00
2013-11-13,46.0,32.3,18.0,31.0,19.0,6.0,86,59,40,0.00,40.00,12,6,24,0.00
2013-11-14,45.0,36.1,28.0,32.0,30.6,27.0,97,81,57,0.00,40.00,6,2,9,0.00
2013-11-15,52.0,37.6,26.0,39.0,30.8,26.0,99,79,47,0.00,40.00,7,3,17,0.00
2013-11-16,45.0,41.9,40.0,44.0,36.7,-99.9,99,85,73,0.00,40.00,9,5,21,0.00
2013-11-17,49.0,40.3,32.0,48.0,39.3,29.0,99,96,83,0.00,40.00,10,5,24,0.00
2013-11-18,29.0,26.8,22.0,26.0,17.7,13.0,87,69,59,0.00,40.00,14,8,29,0.00
2013-11-19,38.0,28.0,12.0,19.0,14.6,11.0,94,61,37,0.00,40.00,17,6,29,0.00
2013-11-20,41.0,37.8,33.0,31.0,20.4,15.0,90,53,37,0.00,40.00,17,9,30,0.00
2013-11-21,35.0,30.0,23.0,34.0,26.9,14.0,99,89,69,0.00,40.00,11,6,18,0.00
2013-11-22,30.0,21.2,11.0,15.0,8.9,-2.0,85,62,28,0.00,40.00,12,6,22,0.00
2013-11-23,15.0,8.5,-3.0,6.0,-2.0,-99.9,86,66,48,0.00,40.00,12,-29,22,0.00
2013-11-24,26.0,12.6,-5.0,12.0,1.9,-8.0,89,65,47,0.00,40.00,16,7,30,0.00
2013-11-25,38.0,31.1,26.0,26.0,19.8,12.0,75,63,53,0.00,40.00,12,6,23,0.00
2013-11-26,28.0,16.0,10.0,13.0,5.4,0.0,86,64,49,0.00,40.00,15,7,26,0.00
2013-11-27,24.0,17.2,10.0,17.0,12.2,8.0,94,82,56,0.00,40.00,6,2,9,0.00
2013-11-28,23.0,16.5,0.0,18.0,13.5,-1.0,96,88,73,0.00,40.00,6,2,11,0.00
2013-11-29,25.0,12.7,-6.0,18.0,7.5,-8.0,94,81,67,0.00,40.00,10,3,19,0.00
2013-11-30,38.0,28.8,25.0,24.0,19.5,-99.9,80,71,52,0.00,40.00,8,3,16,0.00
2013-12-1,32.0,28.9,25.0,26.0,23.6,21.0,90,81,71,0.00,40.00,5,1,7,0.00
2013-12-2,33.0,27.7,17.0,30.0,26.2,15.0,98,94,85,0.00,40.00,7,3,15,0.00
2013-12-3,32.0,29.5,25.0,31.0,28.4,24.0,99,96,91,0.00,40.00,8,5,17,0.00
2013-12-4,32.0,27.5,25.0,31.0,26.8,24.0,99,97,94,0.00,40.00,7,4,15,0.00
2013-12-5,26.0,8.5,-3.0,25.0,5.2,-6.0,99,86,75,0.00,40.00,7,4,17,0.00
2013-12-6,6.0,-5.4,-18.0,-4.0,-10.1,-21.0,86,80,61,0.00,40.00,5,2,11,0.00
2013-12-7,-1.0,-12.0,-21.0,-9.0,-18.0,-99.9,83,78,69,0.00,40.00,4,2,12,0.00
2013-12-8,10.0,-3.1,-22.0,4.0,-7.8,-26.0,87,81,72,0.00,40.00,4,1,8,0.00
2013-12-9,8.0,-0.7,-12.0,5.0,-5.0,-15.0,90,82,68,0.00,40.00,7,3,17,0.00
2013-12-10,7.0,-3.0,-12.0,-3.0,-8.0,-15.0,86,79,62,0.00,40.00,6,2,15,0.00
2013-12-11,-1.0,-8.8,-17.0,-7.0,-14.0,-20.0,86,78,58,0.00,40.00,5,2,12,0.00
2013-12-12,10.0,2.9,-10.0,5.0,-2.5,-14.0,86,79,65,0.00,40.00,6,-38,10,0.00
2013-12-13,10.0,5.7,-1.0,5.0,1.4,-4.0,87,83,76,0.00,40.00,7,3,12,0.00
2013-12-14,15.0,8.8,4.0,11.0,3.3,-99.9,89,82,75,0.00,40.00,6,2,15,0.00
2013-12-15,5.0,-8.1,-24.0,1.0,-13.9,-28.0,85,76,56,0.00,40.00,9,3,17,0.00
2013-12-16,10.0,-0.7,-24.0,8.0,-4.8,-28.0,92,83,73,0.00,40.00,10,4,20,0.00
2013-12-17,27.0,16.6,3.0,24.0,12.2,-4.0,98,84,65,0.00,40.00,11,4,19,0.00
2013-12-18,25.0,8.4,-7.0,15.0,2.6,-11.0,93,78,57,0.00,40.00,7,2,18,0.00
2013-12-19,15.0,12.0,1.0,13.0,9.3,0.0,94,88,77,0.00,40.00,9,5,19,0.00
2013-12-20,21.0,8.0,-3.0,16.0,5.5,-5.0,93,90,79,0.00,40.00,3,1,10,0.00
2013-12-21,22.0,14.9,5.0,15.0,10.2,-99.9,94,86,74,0.00,40.00,4,2,9,0.00
2013-12-22,22.0,19.0,15.0,19.0,17.5,14.0,96,93,89,0.00,40.00,11,5,16,0.00
2013-12-23,18.0,10.9,-2.0,17.0,8.0,-4.0,94,88,77,0.00,40.00,7,4,14,0.00
2013-12-24,10.0,-0.1,-17.0,7.0,-3.5,-20.0,89,85,77,0.00,40.00,9,4,20,0.00
2013-12-25,16.0,10.8,7.0,13.0,7.6,3.0,91,87,79,0.00,40.00,7,4,16,0.00
2013-12-26,16.0,8.1,0.0,9.0,4.1,-3.0,90,84,71,0.00,40.00,4,0,7,0.00
2013-12-27,32.0,20.0,-1.0,28.0,18.1,-3.0,99,93,76,0.00,40.00,12,5,23,0.00
2013-12-28,32.0,25.1,15.0,32.0,23.2,-99.9,99,97,95,0.00,40.00,21,5,35,0.00
2013-12-29,15.0,-0.1,-19.0,12.0,-5.5,-24.0,88,78,63,0.00,40.00,12,7,24,0.00
2013-12-30,-3.0,-9.3,-22.0,-13.0,-16.1,-27.0,81,72,57,0.00,40.00,4,1,8,0.00
2013-12-31,-3.0,-16.5,-28.0,-13.0,-22.5,-33.0,82,74,56,0.00,40.00,6,2,12,0.00
2014-1-1,4.0,-8.3,-28.0,-5.0,-14.0,-33.0,81,76,65,0.00,40.00,4,1,6,0.00
2014-1-2,9.0,-12.3,-26.0,-2.0,-19.0,-31.0,82,72,49,0.00,40.00,6,1,10,0.00